Location: Huisseau
(47.5933°N, 1.4533°E)
Time: 19:06:41
(UTC+00:00)

CENTAUR R/B - Pass Details

Date: 25 November 2025
Orbit: 633 x 1547 km, 63.4° (Epoch: 06 December)

Event Time Altitude Azimuth Distance (km) Brightness Sun altitude
Exits shadow 04:44:18 32° 238° (WSW) 2,341 4.0 -24.6°
Drops below altitude 10° 04:51:25 10° 190° (S) 3,718 5.5 -23.4°
Sets 04:54:52 0° 181° (S) 4,694 6.1 -22.9°
